Location: ??????????
(54.8537°N, 38.8755°E)
Time: 21:50:51
(UTC+00:00)

Transit 2A Rocket - Pass Details

Date: 21 September 2024
Orbit: 582 x 908 km, 66.7° (Epoch: 09 October)

Event Time Altitude Azimuth Distance (km) Brightness Sun altitude
Exits shadow 21:55:00 38° 322° (NW) 1,361 6.4 -34.4°
Maximum altitude 21:55:28 39° 333° (NNW) 1,347 6.5 -34.4°
Drops below altitude 10° 22:01:04 10° 41° (NE) 2,563 8.3 -34.2°
Sets 22:03:43 0° 49° (NE) 3,473 9.1 -34.1°
